CW3453 Weather Reports


time (UTC)temp
F
wind
direction
speed
knots
gust
knots
rain 1hr
in
rain 24hr
in
rain mn
in
humidity
%
barometer
mb
20260503213012 90 257 0.9 4.3 0.00 0.00 0.00 24 1009.3
20260503212504 90 15 0.0 5.2 0.00 0.00 0.00 23 1009.3
20260503212004 90 135 0.9 6.1 0.00 0.00 0.00 25 1009.4
20260503211514 90 105 1.7 6.1 0.00 0.00 0.00 27 1009.4
20260503211003 89 217 0.0 3.5 0.00 0.00 0.00 26 1009.4
20260503210507 89 38 1.7 3.5 0.00 0.00 0.00 27 1009.5
20260503210017 89 342 0.9 3.5 0.00 0.00 0.00 27 1009.7
20260503205503 89 319 1.7 3.5 0.00 0.00 0.00 30 1009.7
20260503204519 88 51 1.7 4.3 0.00 0.00 0.00 29 1009.7
20260503204008 88 19 0.0 3.5 0.00 0.00 0.00 27 1009.8
20260503203504 87 28 0.9 3.5 0.00 0.00 0.00 28 1009.8
20260503203018 88 317 0.9 3.5 0.00 0.00 0.00 30 1010.0
20260503202503 88 323 0.9 4.3 0.00 0.00 0.00 34 1010.1
20260503202134 87 288 1.7 4.3 0.00 0.00 0.00 31 1010.1
20260503202129 86 341 1.7 4.3 0.00 0.00 0.00 30 1010.2
20260503202125 86 304 0.9 4.3 0.00 0.00 0.00 32 1010.3
20260503202123 85 342 1.7 4.3 0.00 0.00 0.00 32 1010.4
20260503202118 85 101 0.0 3.5 0.00 0.00 0.00 32 1010.5
20260503202114 84 313 0.9 3.5 0.00 0.00 0.00 33 1010.6
20260503202108 84 315 0.0 2.6 0.00 0.00 0.00 34 1010.6
20260503202105 83 327 0.9 3.5 0.00 0.00 0.00 35 1010.6
20260503202100 83 243 0.9 5.2 0.00 0.00 0.00 35 1010.7
20260503202056 83 315 0.0 5.2 0.00 0.00 0.00 33 1010.8
20260503202051 83 232 1.7 4.3 0.00 0.00 0.00 34 1010.8
20260503202048 83 237 0.9 3.5 0.00 0.00 0.00 36 1010.9
20260503202040 83 69 0.9 3.5 0.00 0.00 0.00 34 1011.0
20260503202032 83 88 1.7 3.5 0.00 0.00 0.00 38 1011.1
20260503202029 82 50 0.0 3.5 0.00 0.00 0.00 37 1011.1
20260503202025 82 67 1.7 3.5 0.00 0.00 0.00 36 1011.2
20260503202021 81 299 0.0 2.6 0.00 0.00 0.00 40 1011.3
20260503202016 80 316 0.9 4.3 0.00 0.00 0.00 40 1011.4
20260503181008 79 333 0.0 3.5 0.00 0.00 0.00 44 1011.6
20260503180507 79 329 0.9 3.5 0.00 0.00 0.00 42 1011.7
20260503180010 78 9 0.9 3.5 0.00 0.00 0.00 40 1011.7
20260503175507 78 30 0.9 3.5 0.00 0.00 0.00 44 1011.7
20260503175002 77 302 1.7 4.3 0.00 0.00 0.00 43 1011.7
20260503174525 77 337 0.9 4.3 0.00 0.00 0.00 49 1011.8
20260503174006 77 256 0.9 4.3 0.00 0.00 0.00 51 1011.8
20260503173503 76 321 0.9 4.3 0.00 0.00 0.00 51 1011.8
20260503173006 76 333 2.6 4.3 0.00 0.00 0.00 50 1011.9
20260503172505 75 46 1.7 3.5 0.00 0.00 0.00 48 1011.9
20260503172002 76 234 0.0 2.6 0.00 0.00 0.00 46 1012.0
20260503171503 76 73 0.9 2.6 0.00 0.00 0.00 45 1012.0
20260503171003 75 352 0.9 1.7 0.00 0.00 0.00 48 1012.0
20260503170503 74 348 0.0 3.5 0.00 0.00 0.00 50 1012.0
20260503151005 58 168 0.0 0.0 0.00 0.00 0.00 86 1012.3
20260503150505 57 160 0.0 0.0 0.00 0.00 0.00 87 1012.3
20260503023508 68 136 2.6 11.3 0.00 0.00 0.00 66 1012.7
20260503023020 69 178 3.5 11.3 0.00 0.00 0.00 64 1012.6
20260503022513 70 3.5 8.7 0.00 0.00 0.00 62 1012.6
20260503022351 70 150 4.3 0.0 0.00 0.00 0.00 61 1012.5
20260503021536 70 165 3.5 7.8 0.00 0.00 0.00 62 1012.4
20260503021448 71 179 2.6 6.1 0.00 0.00 0.00 63 1012.1
20260503021443 71 175 0.9 4.3 0.00 0.00 0.00 63 1011.9
20260503021439 71 160 0.9 4.3 0.00 0.00 0.00 62 1011.8
20260503021437 71 161 0.0 3.5 0.00 0.00 0.00 63 1011.8
20260503021433 71 149 0.9 5.2 0.00 0.00 0.00 62 1011.7
20260503021430 71 166 1.7 5.2 0.00 0.00 0.00 62 1011.6
20260503021423 71 240 0.0 1.7 0.00 0.00 0.00 61 1011.6
20260503021420 71 241 0.0 1.7 0.00 0.00 0.00 63 1011.5
20260503021411 71 180 0.0 1.7 0.00 0.00 0.00 61 1011.5
20260503021404 70 75 0.0 1.7 0.00 0.00 0.00 61 1011.5
20260503021357 70 268 0.0 1.7 0.00 0.00 0.00 62 1011.5
20260503021353 70 266 0.0 1.7 0.00 0.00 0.00 61 1011.5
20260503021349 70 266 0.0 1.7 0.00 0.00 0.00 62 1011.6
20260503021346 70 9 0.0 1.7 0.00 0.00 0.00 63 1011.6
20260503021342 70 175 0.0 0.9 0.00 0.00 0.00 62 1011.6
20260503021340 70 172 0.0 1.7 0.00 0.00 0.00 63 1011.5
20260503021337 70 161 0.0 1.7 0.00 0.00 0.00 62 1011.6
20260503021332 70 172 0.0 1.7 0.00 0.00 0.00 62 1011.7
20260503021329 70 296 0.0 1.7 0.00 0.00 0.00 62 1011.7
20260503021325 70 279 0.0 1.7 0.00 0.00 0.00 61 1011.7
20260503021321 70 284 0.0 1.7 0.00 0.00 0.00 61 1011.7
20260503021318 70 267 0.0 1.7 0.00 0.00 0.00 61 1011.8
20260503021312 70 250 0.0 2.6 0.00 0.00 0.00 62 1011.8
20260503021307 70 244 0.9 3.5 0.00 0.00 0.00 61 1011.8
20260503021304 70 264 0.9 3.5 0.00 0.00 0.00 60 1011.9
20260503021301 70 275 0.9 3.5 0.00 0.00 0.00 60 1011.9
20260503021256 70 271 0.9 4.3 0.00 0.00 0.00 61 1012.0
20260503021252 71 240 1.7 4.3 0.00 0.00 0.00 60 1012.1
20260503021249 70 207 0.0 3.5 0.00 0.00 0.00 60 1012.1
20260503021244 70 254 0.9 2.6 0.00 0.00 0.00 60 1012.1
20260503021241 70 288 0.0 2.6 0.00 0.00 0.00 60 1012.2
20260503021237 70 222 0.9 5.2 0.00 0.00 0.00 60 1012.3
20260503021235 70 213 0.9 5.2 0.00 0.00 0.00 62 1012.3
20260503021232 70 217 0.9 3.5 0.00 0.00 0.00 62 1012.3
20260503021225 69 165 0.0 2.6 0.00 0.00 0.00 63 1012.4
20260503021223 69 200 0.0 1.7 0.00 0.00 0.00 61 1012.5
20260503021218 69 173 0.0 0.0 0.00 0.00 0.00 63 1012.5
20260502224005 69 338 0.0 1.7 0.00 0.00 0.00 62 1012.6
20260502223506 69 250 0.0 5.2 0.00 0.00 0.00 63 1012.8
20260502223008 69 339 0.0 5.2 0.00 0.00 0.00 65 1012.9
20260502222502 69 209 0.0 4.3 0.00 0.00 0.00 62 1012.9
20260502222003 69 139 1.7 4.3 0.00 0.00 0.00 63 1013.0
20260502221511 68 191 0.9 3.5 0.00 0.00 0.00 64 1013.1
20260502221003 68 108 0.9 3.5 0.00 0.00 0.00 63 1013.2
20260502220507 68 346 0.0 1.7 0.00 0.00 0.00 63 1013.3
20260502220011 67 276 0.9 2.6 0.00 0.00 0.00 63 1013.4
20260502215503 67 352 0.9 2.6 0.00 0.00 0.00 64 1013.4
20260502215003 66 277 0.9 1.7 0.00 0.00 0.00 68 1013.4
20260502214511 66 248 0.0 2.6 0.00 0.00 0.00 65 1013.5
20260502214002 65 284 0.0 3.5 0.00 0.00 0.00 66 1013.6
20260502213502 65 209 0.9 3.5 0.00 0.00 0.00 67 1013.7